Location: Unspecified
(48.7670°N, 0.0000°E)
Time: 13:02:36
(UTC+00:00)

Altair - Pass Details

Date: 30 June 2019
Orbit: 1501 x 1683 km, 47.2° (Epoch: 20 July)

Event Time Altitude Azimuth Distance (km) Brightness Sun altitude
Rises 23:21:07 0° 289° (WNW) 4,781 10.5 -17.5°
Reaches altitude 10° 23:24:19 10° 283° (WNW) 3,819 9.9 -17.6°
Maximum altitude 23:33:26 47° 215° (SW) 2,082 7.9 -17.8°
Enters shadow 23:39:50 21° 154° (SSE) 3,092 8.5 -17.9°
Drops below altitude 10° 23:42:50 10° 146° (SE) 3,922 - -17.9°
Sets 23:46:10 0° 140° (SE) 4,918 - -18.0°
